| time (UTC) | temp F | wind direction | speed MPH | gust MPH | rain 1hr in | rain 24hr in | rain mn in | humidity % | barometer mb |
| 20260506134615 | 53 | 2 | 5.0 | 14.0 | 0.00 | 0.00 | 0.00 | ||
| 20260506133515 | 53 | 8 | 4.0 | 9.0 | 0.00 | 0.00 | 0.00 | ||
| 20260506132635 | 54 | 3 | 3.0 | 9.0 | 0.00 | 0.00 | 0.00 | ||
| 20260506131556 | 53 | 8 | 4.0 | 9.0 | 0.00 | 0.00 | 0.00 | ||
| 20260506130535 | 52 | 8 | 4.0 | 8.0 | 0.00 | 0.00 | 0.00 | ||
| 20260506125535 | 53 | 7 | 3.0 | 10.0 | 0.00 | 0.00 | 0.00 | ||
| 20260506124515 | 53 | 358 | 2.0 | 6.0 | 0.00 | 0.00 | 0.00 | ||
| 20260506122535 | 52 | 6 | 2.0 | 6.0 | 0.00 | 0.00 | 0.00 | ||
| 20260506121535 | 51 | 9 | 3.0 | 7.0 | 0.00 | 0.00 | 0.00 | ||
| 20260506120515 | 51 | 2 | 3.0 | 11.0 | 0.00 | 0.00 | 0.00 | ||
| 20260506115555 | 51 | 7 | 5.0 | 10.0 | 0.00 | 0.00 | 0.00 | ||
| 20260506114555 | 51 | 6 | 4.0 | 10.0 | 0.00 | 0.00 | 0.00 | ||
| 20260506113535 | 53 | 4 | 7.0 | 14.0 | 0.00 | 0.00 | 0.00 | ||
| 20260506112515 | 54 | 3 | 4.0 | 11.0 | 0.00 | 0.00 | 0.00 | ||
| 20260506111515 | 55 | 1 | 3.0 | 8.0 | 0.00 | 0.00 | 0.00 | ||
| 20260506110515 | 56 | 0 | 3.0 | 10.0 | 0.00 | 0.00 | 0.00 | ||
| 20260506105515 | 56 | 359 | 3.0 | 11.0 | 0.00 | 0.00 | 0.00 | ||
| 20260506104515 | 55 | 355 | 2.0 | 7.0 | 0.00 | 0.00 | 0.00 | ||
| 20260506103515 | 57 | 360 | 3.0 | 11.0 | 0.00 | 0.00 | 0.00 | ||
| 20260506102515 | 56 | 9 | 3.0 | 8.0 | 0.00 | 0.00 | 0.00 | ||
| 20260506101535 | 56 | 3 | 4.0 | 12.0 | 0.00 | 0.00 | 0.00 | ||
| 20260506100521 | 55 | 319 | 1.0 | 3.0 | 0.00 | 0.00 | 0.00 | ||
| 20260506095535 | 55 | 4 | 4.0 | 10.0 | 0.00 | 0.00 | 0.00 | ||
| 20260506094515 | 55 | 3 | 5.0 | 13.0 | 0.00 | 0.00 | 0.00 | ||
| 20260506093515 | 55 | 339 | 2.0 | 6.0 | 0.00 | 0.00 | 0.00 | ||
| 20260506092535 | 54 | 357 | 3.0 | 10.0 | 0.00 | 0.00 | 0.00 | ||
| 20260506091515 | 53 | 3 | 4.0 | 11.0 | 0.00 | 0.00 | 0.00 | ||
| 20260506090615 | 53 | 355 | 3.0 | 9.0 | 0.00 | 0.00 | 0.00 | ||
| 20260506085515 | 53 | 360 | 3.0 | 11.0 | 0.00 | 0.00 | 0.00 | ||
| 20260506084535 | 53 | 355 | 3.0 | 10.0 | 0.00 | 0.00 | 0.00 | ||
| 20260506083555 | 52 | 1 | 3.0 | 9.0 | 0.00 | 0.00 | 0.00 | ||
| 20260506082535 | 51 | 349 | 2.0 | 6.0 | 0.00 | 0.00 | 0.00 | ||
| 20260506081515 | 51 | 353 | 4.0 | 9.0 | 0.00 | 0.00 | 0.00 | ||
| 20260506080515 | 50 | 340 | 2.0 | 7.0 | 0.00 | 0.00 | 0.00 | ||
| 20260506072535 | 48 | 354 | 2.0 | 11.0 | 0.00 | 0.00 | 0.00 | ||
| 20260506071515 | 48 | 343 | 1.0 | 6.0 | 0.00 | 0.00 | 0.00 | ||
| 20260506062515 | 44 | 330 | 1.0 | 4.0 | 0.00 | 0.00 | 0.00 | ||
| 20260506061615 | 43 | 336 | 1.0 | 5.0 | 0.00 | 0.00 | 0.00 | ||
| 20260506060555 | 43 | 50 | 0.0 | 3.0 | 0.00 | 0.00 | 0.00 | ||
| 20260506050515 | 43 | 315 | 1.0 | 4.0 | 0.00 | 0.00 | 0.00 | ||
| 20260506044515 | 43 | 4 | 0.0 | 1.0 | 0.00 | 0.00 | 0.00 | ||
| 20260506043535 | 43 | 299 | 0.0 | 3.0 | 0.00 | 0.00 | 0.00 | ||
| 20260506042535 | 43 | 326 | 0.0 | 4.0 | 0.00 | 0.00 | 0.00 | ||
| 20260506041635 | 43 | 0.0 | 0.0 | 0.00 | 0.00 | 0.00 | |||
| 20260506040555 | 43 | 304 | 0.0 | 4.0 | 0.00 | 0.00 | 0.00 | ||
| 20260506035515 | 44 | 0.0 | 0.0 | 0.00 | 0.00 | 0.00 | |||
| 20260506034536 | 44 | 311 | 0.0 | 3.0 | 0.00 | 0.00 | 0.00 | ||
| 20260506033535 | 44 | 300 | 1.0 | 7.0 | 0.00 | 0.00 | 0.00 | ||
| 20260506032515 | 44 | 0.0 | 0.0 | 0.00 | 0.00 | 0.00 | |||
| 20260506031635 | 44 | 322 | 0.0 | 2.0 | 0.00 | 0.00 | 0.00 | ||
| 20260506030555 | 45 | 1 | 1.0 | 6.0 | 0.00 | 0.00 | 0.00 | ||
| 20260506025515 | 45 | 0.0 | 0.0 | 0.00 | 0.00 | 0.00 | |||
| 20260506024615 | 45 | 325 | 0.0 | 3.0 | 0.00 | 0.00 | 0.00 | ||
| 20260506023515 | 46 | 305 | 1.0 | 4.0 | 0.00 | 0.00 | 0.00 | ||
| 20260506022555 | 46 | 311 | 2.0 | 6.0 | 0.00 | 0.00 | 0.00 | ||
| 20260506021515 | 47 | 315 | 1.0 | 4.0 | 0.00 | 0.00 | 0.00 | ||
| 20260506020535 | 47 | 312 | 0.0 | 2.0 | 0.00 | 0.00 | 0.00 | ||
| 20260506015515 | 47 | 338 | 1.0 | 9.0 | 0.00 | 0.00 | 0.00 | ||
| 20260506014515 | 47 | 301 | 0.0 | 2.0 | 0.00 | 0.00 | 0.00 | ||
| 20260506013535 | 47 | 0.0 | 0.0 | 0.00 | 0.00 | 0.00 | |||
| 20260506012515 | 47 | 306 | 0.0 | 2.0 | 0.00 | 0.00 | 0.00 | ||
| 20260506011535 | 47 | 0.0 | 0.0 | 0.00 | 0.00 | 0.00 | |||
| 20260506010515 | 47 | 0.0 | 0.0 | 0.00 | 0.00 | 0.00 | |||
| 20260506005615 | 47 | 0.0 | 0.0 | 0.00 | 0.00 | 0.00 | |||
| 20260506004535 | 47 | 0.0 | 0.0 | 0.00 | 0.00 | 0.00 | |||
| 20260506003615 | 47 | 360 | 1.0 | 5.0 | 0.00 | 0.00 | 0.00 | ||
| 20260506002515 | 47 | 0.0 | 0.0 | 0.00 | 0.00 | 0.00 | |||
| 20260506001555 | 47 | 358 | 1.0 | 4.0 | 0.00 | 0.00 | 0.00 | ||
| 20260506000517 | 47 | 352 | 0.0 | 2.0 | 0.00 | 0.00 | 0.00 | ||
| 20260505235535 | 47 | 0.0 | 0.0 | 0.00 | 0.00 | 0.00 | |||
| 20260505234615 | 47 | 0.0 | 0.0 | 0.00 | 0.00 | 0.00 | |||
| 20260505233535 | 47 | 354 | 1.0 | 5.0 | 0.00 | 0.00 | 0.00 | ||
| 20260505232535 | 48 | 344 | 0.0 | 3.0 | 0.00 | 0.00 | 0.00 | ||
| 20260505231555 | 48 | 356 | 1.0 | 5.0 | 0.00 | 0.00 | 0.00 | ||
| 20260505230515 | 48 | 2 | 1.0 | 4.0 | 0.00 | 0.00 | 0.00 | ||
| 20260505225535 | 48 | 0.0 | 0.0 | 0.00 | 0.00 | 0.00 | |||
| 20260505224555 | 48 | 0.0 | 0.0 | 0.00 | 0.00 | 0.00 | |||
| 20260505223515 | 48 | 358 | 1.0 | 5.0 | 0.00 | 0.00 | 0.00 | ||
| 20260505221555 | 48 | 2 | 1.0 | 7.0 | 0.00 | 0.00 | 0.00 | ||
| 20260505220518 | 49 | 354 | 2.0 | 6.0 | 0.00 | 0.00 | 0.00 | ||
| 20260505215535 | 49 | 360 | 1.0 | 5.0 | 0.00 | 0.00 | 0.00 | ||
| 20260505214515 | 49 | 3 | 1.0 | 10.0 | 0.00 | 0.00 | 0.00 | ||
| 20260505213515 | 49 | 6 | 2.0 | 5.0 | 0.00 | 0.00 | 0.00 | ||
| 20260505212535 | 49 | 1 | 1.0 | 7.0 | 0.00 | 0.00 | 0.00 | ||
| 20260505211515 | 50 | 4 | 3.0 | 7.0 | 0.00 | 0.00 | 0.00 | ||
| 20260505210515 | 50 | 18 | 3.0 | 8.0 | 0.00 | 0.00 | 0.00 | ||
| 20260505205515 | 51 | 12 | 3.0 | 7.0 | 0.00 | 0.00 | 0.00 | ||
| 20260505204515 | 51 | 358 | 3.0 | 6.0 | 0.00 | 0.00 | 0.00 | ||
| 20260505203535 | 52 | 12 | 2.0 | 7.0 | 0.00 | 0.00 | 0.00 | ||
| 20260505202535 | 52 | 7 | 2.0 | 6.0 | 0.00 | 0.00 | 0.00 | ||
| 20260505201535 | 52 | 3 | 3.0 | 7.0 | 0.00 | 0.00 | 0.00 | ||
| 20260505200515 | 52 | 8 | 4.0 | 9.0 | 0.00 | 0.00 | 0.00 | ||
| 20260505195615 | 53 | 4 | 2.0 | 6.0 | 0.00 | 0.00 | 0.00 | ||
| 20260505194515 | 53 | 12 | 2.0 | 7.0 | 0.00 | 0.00 | 0.00 | ||
| 20260505193515 | 53 | 13 | 4.0 | 11.0 | 0.00 | 0.00 | 0.00 | ||
| 20260505192535 | 53 | 11 | 3.0 | 7.0 | 0.00 | 0.00 | 0.00 | ||
| 20260505191515 | 54 | 11 | 3.0 | 7.0 | 0.00 | 0.00 | 0.00 | ||
| 20260505190515 | 54 | 35 | 1.0 | 5.0 | 0.00 | 0.00 | 0.00 | ||
| 20260505185635 | 55 | 22 | 2.0 | 7.0 | 0.00 | 0.00 | 0.00 | ||
| 20260505184535 | 55 | 18 | 3.0 | 7.0 | 0.00 | 0.00 | 0.00 | ||
| 20260505183515 | 56 | 12 | 2.0 | 7.0 | 0.00 | 0.00 | 0.00 | ||
| 20260505182515 | 57 | 17 | 2.0 | 8.0 | 0.00 | 0.00 | 0.00 | ||
| 20260505181515 | 57 | 17 | 2.0 | 6.0 | 0.00 | 0.00 | 0.00 | ||
| 20260505180535 | 59 | 27 | 2.0 | 5.0 | 0.00 | 0.00 | 0.00 | ||
| 20260505175535 | 59 | 27 | 2.0 | 8.0 | 0.00 | 0.00 | 0.00 | ||
| 20260505174635 | 58 | 31 | 3.0 | 7.0 | 0.00 | 0.00 | 0.00 | ||
| 20260505173555 | 58 | 20 | 3.0 | 7.0 | 0.00 | 0.00 | 0.00 | ||
| 20260505172515 | 58 | 40 | 2.0 | 7.0 | 0.00 | 0.00 | 0.00 | ||
| 20260505171555 | 59 | 41 | 1.0 | 8.0 | 0.00 | 0.00 | 0.00 | ||
| 20260505170515 | 59 | 30 | 3.0 | 7.0 | 0.00 | 0.00 | 0.00 | ||
| 20260505165515 | 59 | 50 | 1.0 | 5.0 | 0.00 | 0.00 | 0.00 | ||
| 20260505164555 | 60 | 23 | 2.0 | 6.0 | 0.00 | 0.00 | 0.00 | ||
| 20260505163555 | 61 | 41 | 2.0 | 8.0 | 0.00 | 0.00 | 0.00 | ||
| 20260505162535 | 61 | 46 | 2.0 | 7.0 | 0.00 | 0.00 | 0.00 | ||
| 20260505161555 | 62 | 31 | 3.0 | 8.0 | 0.00 | 0.00 | 0.00 | ||
| 20260505160535 | 63 | 47 | 1.0 | 4.0 | 0.00 | 0.00 | 0.00 | ||
| 20260505152515 | 63 | 82 | 1.0 | 6.0 | 0.00 | 0.00 | 0.00 | ||
| 20260505151515 | 64 | 72 | 1.0 | 7.0 | 0.00 | 0.00 | 0.00 | ||
| 20260505150515 | 65 | 57 | 2.0 | 7.0 | 0.00 | 0.00 | 0.00 | ||
| 20260505140515 | 65 | 122 | 4.0 | 12.0 | 0.00 | 0.00 | 0.00 |